Torna al catalogo

VANGUARD 2

AttivoMeteoUNKNOWN
NORAD 11·PAYLOAD·🇺🇸 United States

Lanciato Feb 17, 1959 da Cape Canaveral Space Force Station

Loading…

Prossimi Passaggi (prossime 24 ore)

TLE

AggiornatoSource: Space-Track

Epoca: Sep 10, 2026, 22:44 UTC

1 00011U 59001A   26253.94734926  .00000489  00000-0  24217-3 0  9999
2 00011  32.8675 120.4720 1445144 185.0888 173.3403 11.90659460545693

Traccia VANGUARD 2 in tempo reale con AllMySat

Download on the App Store